Vorticity
2 2 3 5 5 3 13 9 6 9 8 8 6 8 9 12 8 -10 11 3 -0 0 1 4 4 4 5 4 7 3 8 7 11 8 4 5 5 -1 -0 2 4 1 3 6 5 6 9 8 8
3 3 1 6 9 12 16 -11 -4 3 9 11 13 10 9 7 7 6 5 4 2 0 1 3 4 8 2 2 9 5 4 9 6 9 5 3 6 3 5 3 3 5 2 1 2 5 6 8 7
14 12 8 9 10 14 4 -0 1 10 5 2 3 6 7 3 9 7 6 4 4 1 0 2 0 2 3 2 5 6 4 6 11 9 8 4 3 3 3 4 5 4 4 2 3 2 4 8 7
4 4 4 6 9 11 8 9 11 11 13 9 4 10 9 8 7 6 6 4 3 1 3 1 -2 3 -1 4 4 9 4 4 8 9 9 5 3 4 3 4 5 6 7 5 1 3 2 6 7
3 4 4 5 6 6 3 6 2 2 6 12 15 6 5 8 6 6 4 5 4 3 3 6 3 1 3 2 5 5 5 5 8 12 9 8 2 4 2 4 4 4 6 7 5 3 3 5 6
6 5 7 4 9 10 14 9 6 6 2 2 8 4 8 2 7 5 4 3 3 2 3 2 0 1 3 1 5 5 5 4 10 8 9 8 6 2 4 4 2 3 4 6 6 4 4 6 4
9 9 6 5 5 6 7 3 6 5 8 5 3 7 3 2 8 6 5 2 3 2 3 2 2 1 2 1 1 7 3 5 7 8 10 7 8 4 2 4 3 3 3 6 6 6 4 5 3
9 7 7 6 5 3 6 6 6 5 5 3 4 5 4 -1 8 4 6 4 2 2 2 2 2 1 1 2 2 5 5 6 6 4 7 11 7 7 6 6 4 2 1 4 7 6 6 5 3
8 8 7 8 6 6 8 8 7 4 4 5 4 5 3 3 4 4 5 4 5 3 2 2 1 1 -0 2 2 4 6 5 4 7 9 11 8 7 7 6 4 4 3 3 5 6 6 4 4
5 3 3 3 3 4 4 3 6 6 7 8 8 7 7 5 4 5 5 5 4 5 3 2 0 1 2 2 3 5 6 5 4 6 8 7 13 8 8 5 4 4 3 3 6 6 6 7 5
7 5 4 5 5 3 5 5 3 5 5 10 6 5 7 8 9 7 5 5 7 3 4 5 4 4 3 3 4 3 3 6 4 5 5 6 9 10 8 7 4 4 3 3 5 7 6 6 6
5 5 4 5 5 6 5 7 4 6 3 3 4 6 9 10 7 6 10 6 7 6 4 3 3 4 4 4 3 3 1 8 6 3 7 6 5 9 7 7 5 5 4 4 5 6 7 6 6
9 5 7 8 7 9 10 9 9 7 9 13 16 9 5 6 8 11 9 10 8 6 6 6 5 5 5 2 2 2 2 5 8 4 4 7 6 6 7 7 7 4 4 4 5 6 7 7 7
8 10 8 7 5 5 7 3 5 4 4 7 7 10 10 11 12 9 9 10 9 9 8 5 7 6 5 4 0 3 3 4 8 7 6 5 7 5 7 6 5 4 4 4 4 6 6 7 8
5 5 7 6 6 7 6 5 9 9 6 2 7 7 5 4 7 11 9 10 8 12 5 12 10 7 8 3 2 2 4 3 5 8 3 5 7 8 5 6 6 5 3 3 4 6 6 7 7
11 9 7 7 9 7 10 5 5 10 10 6 4 4 7 9 12 10 9 6 9 9 7 7 10 9 6 8 4 3 4 6 6 7 4 4 8 9 6 5 7 6 4 4 4 6 7 6 7
7 9 9 13 12 5 12 4 4 8 8 8 9 11 6 2 2 6 6 8 7 9 6 7 6 8 14 11 10 0 3 7 7 6 2 7 4 3 7 6 3 7 4 5 4 5 6 5 6
8 5 7 10 8 10 11 9 4 6 6 7 6 8 5 2 5 2 5 5 6 7 9 7 5 6 8 18 12 -1 -1 6 10 6 1 5 6 3 5 7 8 7 6 5 4 4 4 5 6
9 10 8 7 7 9 8 6 4 6 12 6 6 8 7 7 7 7 6 4 7 6 6 8 8 5 5 11 11 1 -2 2 7 5 3 4 4 6 6 5 5 5 4 5 4 4 4 5 5
13 11 10 12 11 9 9 9 4 37 6 9 9 9 6 6 8 8 6 4 5 9 7 13 5 5 6 5 18 10 10 -2 4 3 7 4 4 6 6 5 3 3 3 4 6 4 4 3 5
12 10 12 11 10 7 9 10 17 -4 11 40 27 22 19 20 19 23 16 15 19 19 33 25 16 7 3 8 18 10 8 -0 -11 5 4 7 3 5 5 5 4 3 3 4 5 5 5 4 3
15 16 16 9 5 4 13 11 26 4 22 13 22 17 15 22 -3 21 20 41 15 33 17 27 43 25 6 1 8 10 3 7 0 -1 4 4 4 5 4 6 6 5 3 4 3 4 4 5 7
10 9 4 5 5 10 24 24 35 14 19 10 2 23 27 0 18 5 6 10 22 25 -3 -1 30 43 17 5 4 12 12 8 -1 -6 4 3 5 5 6 5 6 6 6 4 4 5 5 5 4
6 5 7 6 14 32 29 15 11 20 6 1 24 8 24 34 7 24 30 15 5 -3 21 16 17 31 35 12 2 6 11 12 -3 -3 -3 4 4 5 7 5 5 3 5 5 5 2 25 -16 32
8 10 14 26 31 12 -8 -19 -1 12 5 -6 12 28 14 1 9 -12 26 44 56 54 51 44 47 38 58 12 4 3 11 8 1 4 -10 6 1 5 8 4 4 2 2 4 9 21 16 -5 30
11 11 13 13 11 4 9 22 -5 -0 6 9 29 12 14 6 23 30 -4 -14 38 36 46 60 58 47 74 29 5 -11 13 4 6 -3 -6 2 6 1 6 4 6 -2 3 1 -3 -3 4 3 -4
7 22 10 13 13 14 17 1 8 -2 8 9 36 1 7 20 30 6 33 1 31 9 8 34 52 40 54 38 8 1 9 11 7 -2 -2 9 18 -3 4 9 4 4 2 2 -3 -1 4 3 2
9 8 5 11 9 9 7 8 4 1 -0 10 31 13 -2 26 -2 -0 17 38 -33 31 15 11 22 29 66 30 4 40 9 12 6 -1 13 5 27 -0 1 6 7 3 -1 1 2 5 4 6 6
6 6 10 7 11 7 8 14 1 1 -4 -16 15 34 3 17 16 4 31 17 23 21 15 21 31 23 55 23 14 10 7 7 12 -3 17 4 3 12 3 13 4 -0 4 11 1 8 9 7 11
1 8 13 6 12 11 -1 1 14 1 7 8 15 -4 35 5 -1 9 7 14 32 65 -0 23 25 35 34 20 10 13 4 10 15 17 30 -26 61 -6 1 5 8 2 4 6 -2 8 7 8 15
Height
5855 5856 5857 5858 5860 5858 5858 5859 5855 5856 5856 5857 5856 5858 5858 5858 5856 5857 5853 5855 5855 5855 5856 5855 5855 5855 5854 5853 5852 5851 5851 5851 5849 5849 5849 5848 5848 5847 5846 5846 5846 5845 5845 5843 5841 5840 5840 5838 5837
5850 5851 5852 5853 5854 5855 5861 5854 5851 5851 5851 5852 5851 5851 5851 5850 5849 5850 5850 5852 5852 5853 5853 5854 5853 5853 5852 5850 5850 5850 5849 5848 5848 5846 5847 5846 5846 5846 5844 5845 5845 5843 5843 5843 5840 5839 5838 5837 5835
5844 5845 5847 5847 5847 5851 5856 5847 5844 5846 5846 5847 5847 5847 5845 5843 5846 5846 5847 5848 5849 5849 5849 5850 5850 5850 5849 5848 5848 5847 5846 5846 5845 5845 5844 5844 5844 5844 5843 5843 5843 5842 5842 5841 5839 5838 5837 5836 5834
5839 5840 5840 5840 5842 5844 5845 5842 5841 5840 5840 5841 5840 5841 5840 5841 5841 5843 5843 5844 5844 5844 5845 5846 5847 5847 5846 5845 5845 5845 5844 5843 5843 5843 5843 5842 5842 5841 5841 5841 5842 5840 5840 5839 5838 5837 5835 5834 5833
5833 5833 5834 5833 5836 5839 5838 5838 5835 5836 5835 5835 5837 5836 5836 5835 5837 5839 5839 5839 5840 5840 5841 5841 5843 5843 5842 5842 5842 5841 5841 5841 5840 5840 5840 5840 5839 5838 5838 5839 5840 5839 5839 5838 5837 5836 5835 5833 5832
5827 5828 5828 5828 5829 5832 5833 5831 5830 5831 5829 5829 5831 5830 5833 5826 5832 5834 5835 5835 5835 5835 5837 5838 5838 5839 5838 5838 5838 5837 5837 5838 5837 5837 5837 5837 5837 5836 5836 5836 5837 5836 5836 5836 5835 5834 5833 5832 5830
5821 5821 5823 5823 5825 5827 5827 5825 5827 5826 5826 5825 5822 5827 5828 5825 5829 5829 5830 5830 5830 5830 5832 5833 5833 5834 5833 5833 5834 5834 5834 5834 5834 5834 5834 5834 5834 5833 5833 5833 5833 5834 5833 5834 5833 5832 5831 5830 5829
5815 5815 5817 5819 5818 5817 5819 5820 5820 5819 5820 5819 5818 5821 5821 5820 5824 5823 5823 5825 5825 5824 5825 5827 5827 5828 5828 5828 5829 5830 5830 5830 5830 5830 5831 5830 5831 5830 5830 5830 5830 5831 5830 5831 5830 5829 5829 5828 5826
5809 5810 5812 5812 5809 5809 5810 5815 5813 5812 5814 5814 5813 5814 5814 5814 5815 5816 5817 5816 5817 5818 5819 5821 5822 5822 5822 5822 5823 5825 5826 5825 5826 5826 5827 5827 5827 5827 5826 5827 5827 5828 5828 5828 5827 5826 5826 5826 5824
5803 5803 5806 5802 5805 5803 5804 5806 5807 5806 5807 5807 5807 5806 5806 5807 5807 5809 5809 5811 5811 5813 5813 5814 5816 5817 5817 5817 5817 5818 5821 5821 5821 5822 5822 5823 5823 5823 5824 5824 5824 5825 5825 5825 5824 5823 5823 5823 5821
5797 5796 5796 5797 5795 5797 5796 5798 5799 5798 5798 5799 5797 5797 5800 5801 5802 5801 5802 5803 5805 5805 5806 5806 5808 5810 5811 5811 5812 5813 5815 5816 5816 5817 5818 5818 5819 5819 5820 5820 5821 5821 5821 5821 5821 5820 5820 5819 5819
5789 5788 5788 5788 5786 5788 5787 5787 5790 5788 5790 5789 5787 5790 5792 5792 5794 5793 5793 5794 5795 5796 5797 5799 5800 5802 5804 5805 5806 5807 5808 5811 5812 5812 5813 5814 5814 5814 5815 5816 5817 5817 5818 5818 5818 5817 5817 5816 5816
5779 5782 5779 5779 5778 5778 5778 5778 5777 5780 5778 5778 5780 5781 5782 5782 5781 5783 5782 5782 5784 5785 5787 5789 5791 5795 5796 5796 5799 5800 5802 5805 5806 5807 5807 5809 5809 5809 5810 5812 5813 5814 5814 5814 5815 5814 5814 5813 5812
5770 5772 5772 5772 5770 5770 5769 5770 5768 5766 5767 5770 5770 5769 5770 5771 5771 5771 5773 5772 5771 5774 5775 5777 5780 5785 5787 5789 5791 5794 5793 5797 5799 5801 5802 5803 5805 5804 5805 5806 5808 5809 5809 5811 5811 5811 5811 5810 5810
5762 5761 5761 5761 5760 5762 5759 5760 5756 5752 5754 5757 5756 5759 5760 5760 5758 5759 5759 5762 5759 5760 5762 5765 5769 5773 5778 5780 5782 5786 5787 5788 5792 5793 5795 5796 5798 5799 5799 5800 5802 5804 5805 5806 5806 5807 5807 5807 5807
5754 5752 5750 5748 5750 5751 5750 5749 5746 5740 5738 5737 5739 5745 5745 5746 5745 5748 5746 5747 5750 5749 5749 5752 5754 5760 5766 5769 5773 5777 5780 5782 5784 5785 5787 5790 5792 5794 5794 5794 5796 5798 5800 5801 5801 5802 5803 5803 5803
5745 5745 5742 5742 5738 5742 5742 5740 5735 5729 5728 5724 5724 5725 5727 5731 5730 5731 5732 5734 5735 5738 5737 5738 5740 5745 5752 5757 5761 5765 5771 5774 5776 5777 5779 5783 5786 5787 5789 5790 5791 5792 5793 5796 5797 5797 5798 5798 5798
5740 5734 5733 5734 5731 5730 5732 5732 5725 5715 5714 5712 5714 5712 5711 5711 5709 5714 5719 5717 5720 5722 5725 5723 5726 5731 5736 5743 5747 5752 5757 5763 5766 5769 5772 5776 5777 5779 5782 5784 5785 5785 5787 5789 5790 5791 5792 5792 5793
5731 5729 5724 5720 5721 5721 5721 5723 5717 5705 5694 5702 5703 5699 5698 5697 5696 5696 5696 5698 5703 5702 5707 5711 5710 5717 5719 5728 5733 5737 5742 5752 5759 5760 5766 5769 5770 5770 5774 5778 5778 5777 5780 5782 5784 5785 5786 5787 5786
5720 5720 5713 5713 5709 5710 5711 5714 5708 5691 5684 5687 5685 5681 5679 5679 5676 5674 5672 5673 5674 5679 5684 5690 5691 5699 5703 5711 5721 5726 5731 5741 5751 5753 5756 5760 5761 5763 5767 5770 5769 5770 5771 5775 5778 5777 5779 5779 5780
5710 5708 5704 5701 5700 5698 5697 5703 5695 5678 5673 5671 5666 5663 5658 5658 5656 5653 5651 5649 5648 5651 5652 5658 5672 5674 5683 5693 5702 5710 5717 5725 5735 5738 5743 5749 5754 5760 5760 5761 5761 5763 5763 5766 5770 5770 5771 5772 5774
5699 5699 5697 5692 5689 5688 5683 5687 5678 5674 5668 5660 5655 5651 5647 5644 5641 5636 5631 5629 5625 5626 5621 5622 5635 5642 5657 5669 5680 5693 5703 5712 5722 5730 5739 5740 5745 5751 5753 5754 5753 5754 5757 5756 5761 5762 5763 5765 5767
5690 5689 5689 5685 5678 5675 5671 5669 5671 5661 5659 5653 5643 5639 5636 5634 5629 5623 5616 5611 5605 5601 5600 5600 5605 5617 5629 5643 5658 5675 5689 5701 5710 5720 5728 5730 5735 5742 5745 5745 5745 5744 5747 5750 5752 5754 5755 5756 5757
5682 5681 5679 5677 5670 5666 5661 5660 5655 5651 5650 5644 5636 5628 5625 5622 5617 5607 5600 5594 5587 5580 5576 5573 5574 5592 5604 5617 5638 5659 5676 5687 5695 5706 5714 5720 5724 5732 5735 5736 5735 5737 5739 5740 5745 5747 5750 5749 5749
5675 5672 5670 5668 5663 5666 5660 5655 5649 5647 5640 5633 5626 5620 5615 5610 5604 5596 5590 5579 5566 5556 5548 5544 5547 5560 5578 5591 5621 5644 5661 5674 5684 5694 5703 5710 5714 5719 5724 5726 5728 5731 5731 5732 5737 5740 5742 5741 5741
5667 5665 5663 5659 5660 5656 5656 5650 5643 5640 5635 5627 5617 5609 5606 5601 5594 5588 5578 5569 5557 5543 5531 5524 5528 5536 5553 5578 5610 5636 5643 5661 5671 5681 5687 5698 5705 5709 5711 5715 5719 5725 5723 5725 5728 5732 5734 5735 5736
5661 5658 5656 5653 5653 5650 5651 5642 5641 5636 5630 5622 5614 5605 5599 5592 5586 5576 5569 5559 5545 5537 5531 5527 5527 5531 5542 5569 5597 5610 5632 5644 5655 5665 5675 5686 5692 5695 5698 5704 5709 5712 5715 5717 5719 5721 5724 5726 5727
5654 5653 5651 5649 5647 5645 5647 5638 5635 5632 5628 5618 5607 5600 5595 5586 5579 5571 5560 5550 5540 5536 5530 5529 5529 5535 5543 5565 5590 5598 5622 5637 5647 5656 5666 5673 5675 5679 5687 5693 5697 5701 5705 5708 5709 5712 5714 5716 5718
5647 5646 5646 5644 5643 5639 5636 5632 5629 5626 5620 5612 5602 5596 5591 5583 5578 5568 5557 5546 5540 5538 5536 5534 5535 5541 5550 5570 5584 5601 5617 5629 5636 5642 5650 5657 5649 5665 5676 5682 5686 5691 5695 5699 5699 5700 5702 5706 5707
5642 5641 5639 5637 5637 5635 5631 5626 5622 5621 5615 5609 5601 5596 5589 5582 5577 5569 5561 5553 5546 5542 5544 5542 5544 5548 5558 5573 5592 5605 5612 5623 5626 5633 5634 5642 5654 5660 5668 5674 5678 5681 5683 5687 5690 5690 5691 5694 5697